Sanford, FL

4:55 AM EDT on June 24, 2018 (GMT -0400)
Orlando Sanford

Weather History for KSFB - June, 2011

Change the Weather History Date:

Friday, June 24, 2011

  Actual Average Record
Temperature  
Mean Temperature 82 °F -  
Max Temperature 93 °F 91 °F 101 °F (1998)
Min Temperature 72 °F 73 °F 62 °F (1985)
Cooling Degree Days 18    
Growing Degree Days 32 (Base 50)    
Moisture  
Dew Point 72 °F    
Average Humidity 78    
Maximum Humidity 96    
Minimum Humidity 47    
Precipitation  
Precipitation 0.55 in - - ()
Sea Level Pressure  
Sea Level Pressure 29.95 in    
Wind  
Wind Speed 6 mph (SSE)    
Max Wind Speed 18 mph    
Max Gust Speed 26 mph    
Visibility 8 miles    
Events Rain , Thunderstorm    
T = Trace of Precipitation, MM = Missing Value Source: NWS Daily Summary

Daily Weather History Graph

Daily Weather History Graph

Search for Another Location

Airport or City:

Astronomy

Jun. 24, 2011 Rise Set
Actual Time 6:27 AM EDT 8:26 PM EDT
Civil Twilight 6:00 AM EDT 8:53 PM EDT
Nautical Twilight 5:28 AM EDT 9:26 PM EDT
Astronomical Twilight 4:53 AM EDT 10:01 PM EDT
Moon 1:27 AM EDT 2:33 PM EDT
Length of Visible Light 14h 52m
Length of Day
13h 58m
Last Quarter, 39% of the Moon is Illuminated
Jun 24
Last Quarter
Jul 1
New
Jul 8
First Quarter
Jul 15
Full
Jul 23
Last Quarter

Hourly Weather History & Observations

Time (EDT) Temp. Heat Index Dew Point Humidity Pressure Visibility Wind Dir Wind Speed Gust Speed Precip Events Conditions
12:53 AM 79.0 °F - 72.0 °F 79% 29.99 in 10.0 mi ESE 4.6 mph - N/A   Mostly Cloudy
1:53 AM 78.1 °F - 73.0 °F 84% 29.97 in 10.0 mi SSE 3.5 mph - N/A   Partly Cloudy
2:53 AM 78.1 °F - 73.0 °F 84% 29.95 in 10.0 mi SSE 3.5 mph - N/A   Scattered Clouds
3:53 AM 78.1 °F - 72.0 °F 81% 29.94 in 10.0 mi South 4.6 mph - N/A   Clear
4:53 AM 78.8 °F - 71.6 °F 78% 29.94 in 10.0 mi Calm Calm - N/A   Clear
5:53 AM 77.0 °F - 72.0 °F 84% 29.96 in 10.0 mi Calm Calm - N/A   Clear
6:53 AM 77.0 °F - 71.6 °F 83% 29.96 in 10.0 mi Variable 3.5 mph - N/A   Clear
7:53 AM 78.8 °F - 71.6 °F 78% 29.97 in 10.0 mi South 6.9 mph - N/A   Clear
8:53 AM 81.0 °F 85.8 °F 73.0 °F 77% 29.97 in 10.0 mi South 6.9 mph - N/A   Clear
9:53 AM 82.9 °F 88.8 °F 73.0 °F 72% 29.98 in 10.0 mi SSW 4.6 mph - N/A   Partly Cloudy
10:53 AM 87.1 °F 95.4 °F 73.9 °F 65% 29.96 in 10.0 mi Variable 4.6 mph - N/A   Scattered Clouds
11:53 AM 88.0 °F 95.6 °F 73.0 °F 61% 29.96 in 10.0 mi Variable 4.6 mph - N/A   Partly Cloudy
12:53 PM 90.0 °F 97.9 °F 73.0 °F 57% 29.94 in 10.0 mi Variable 4.6 mph - N/A   Scattered Clouds
1:53 PM 93.0 °F 100.7 °F 72.0 °F 50% 29.92 in 10.0 mi Variable 6.9 mph - N/A   Scattered Clouds
2:53 PM 93.0 °F 100.1 °F 71.1 °F 49% 29.89 in 10.0 mi WSW 5.8 mph - N/A   Mostly Cloudy
3:53 PM 91.9 °F 96.9 °F 69.1 °F 47% 29.87 in 10.0 mi WSW 5.8 mph - N/A   Clear
4:53 PM 89.1 °F 93.7 °F 69.1 °F 52% 29.87 in 10.0 mi SE 10.4 mph - N/A   Scattered Clouds
5:44 PM 82.4 °F 86.3 °F 69.8 °F 66% 29.89 in 10.0 mi North 18.4 mph 24.2 mph N/A Thunderstorm Thunderstorm
5:53 PM 82.9 °F 85.8 °F 68.0 °F 60% 29.91 in 10.0 mi North 16.1 mph 26.5 mph N/A Thunderstorm Thunderstorm
6:03 PM 82.4 °F 86.3 °F 69.8 °F 66% 29.93 in 8.0 mi East 10.4 mph 19.6 mph 0.01 in Rain , Thunderstorm Thunderstorms and Rain
6:14 PM 75.2 °F - 73.4 °F 94% 29.94 in 2.0 mi SE 17.3 mph - 0.12 in Rain , Thunderstorm Thunderstorms and Rain
6:18 PM 75.2 °F - 73.4 °F 94% 29.95 in 3.0 mi SSE 18.4 mph - 0.13 in Rain , Thunderstorm Thunderstorms and Rain
6:21 PM 73.4 °F - 71.6 °F 94% 29.95 in 2.5 mi SE 16.1 mph - 0.14 in Rain , Thunderstorm Thunderstorms and Rain
6:53 PM 73.4 °F - 71.6 °F 94% 29.93 in 2.5 mi South 12.7 mph - N/A Rain , Thunderstorm Thunderstorms and Rain
7:00 PM 73.4 °F - 71.6 °F 94% 29.94 in 2.0 mi South 17.3 mph - 0.08 in Rain , Thunderstorm Thunderstorms and Rain
7:17 PM 73.4 °F - 69.8 °F 88% 29.98 in 2.0 mi NNE 9.2 mph 16.1 mph 0.12 in Rain , Thunderstorm Thunderstorms and Rain
7:39 PM 73.4 °F - 71.6 °F 94% 29.97 in 2.0 mi East 10.4 mph - 0.37 in Rain , Thunderstorm Thunderstorms and Rain
7:53 PM 73.0 °F - 71.1 °F 93% 29.97 in 2.0 mi East 8.1 mph - 0.52 in Rain , Thunderstorm Thunderstorms and Rain
7:58 PM 73.4 °F - 71.6 °F 94% 29.98 in 5.0 mi East 5.8 mph - 0.01 in Rain , Thunderstorm Thunderstorms and Rain
8:53 PM 72.0 °F - 70.0 °F 93% 29.96 in 10.0 mi ESE 5.8 mph - 0.03 in   Clear
9:53 PM 73.0 °F - 71.1 °F 93% 29.96 in 10.0 mi South 3.5 mph - N/A   Clear
10:53 PM 73.0 °F - 72.0 °F 96% 29.98 in 10.0 mi SSW 5.8 mph - N/A   Clear
11:53 PM 73.0 °F - 72.0 °F 96% 29.99 in 10.0 mi West 3.5 mph - N/A   Clear